Weather History for KLTS - November, 2012

Change the Weather History Date:

Thursday, November 8, 2012

  Actual Average Record
Temperature  
Mean Temperature 65 °F -  
Max Temperature 82 °F 61 °F 87 °F (2005)
Min Temperature 48 °F 41 °F 32 °F (2000)
Growing Degree Days 15 (Base 50)    
Moisture  
Dew Point 48 °F    
Average Humidity 49    
Maximum Humidity 67    
Minimum Humidity 33    
Precipitation  
Precipitation 0.00 in - - ()
Sea Level Pressure  
Sea Level Pressure 29.87 in    
Wind  
Wind Speed 13 mph (SSE)    
Max Wind Speed 22 mph    
Max Gust Speed 25 mph    
Visibility 10 miles    
Events      
Averages and records for this station are not official NWS values.
T = Trace of Precipitation, MM = Missing Value Source: NWS Daily Summary

Daily Weather History Graph

Daily Weather History Graph

Search for Another Location

Airport or City:

Trip Planner

Search our weather history database for the weather conditions in past years. The results will help you decide how hot, cold, wet, or windy it might be!

Date:

Astronomy

Nov. 08, 2012 Rise Set
Actual Time 7:04 AM CST 5:36 PM CST
Civil Twilight 6:38 AM CST 6:03 PM CST
Nautical Twilight 6:08 AM CST 6:33 PM CST
Astronomical Twilight 5:38 AM CST 7:02 PM CST
Moon 1:15 AM CST (11/8) 2:06 PM CST (11/8)
Length of Visible Light 11h 24m
Length of Day
10h 32m
Waning Crescent, 32% of the Moon is Illuminated
Nov 8
Waning Crescent
Nov 13
New
Nov 20
First Quarter
Nov 28
Full
Dec 6
Last Quarter

Hourly Weather History & Observations

Time (CST) Temp. Dew Point Humidity Pressure Visibility Wind Dir Wind Speed Gust Speed Precip Events Conditions
12:55 AM 52.5 °F 36.5 °F 54% 29.97 in 10.0 mi ESE 10.4 mph - N/A   Clear
1:55 AM 52.0 °F 36.9 °F 56% 29.96 in 10.0 mi ESE 9.2 mph - N/A   Clear
2:55 AM 50.7 °F 37.0 °F 59% 29.96 in 10.0 mi ESE 9.2 mph - N/A   Clear
3:55 AM 50.0 °F 37.2 °F 62% 29.95 in 10.0 mi ESE 9.2 mph - N/A   Clear
4:55 AM 50.5 °F 38.1 °F 62% 29.95 in 10.0 mi SE 9.2 mph - N/A   Clear
5:55 AM 49.8 °F 38.3 °F 65% 29.95 in 10.0 mi SE 12.7 mph - N/A   Clear
6:55 AM 48.9 °F 38.5 °F 67% 29.96 in 10.0 mi SE 11.5 mph - N/A   Clear
7:55 AM 50.7 °F 39.9 °F 67% 29.96 in 10.0 mi SE 11.5 mph - N/A   Clear
8:55 AM 57.4 °F 42.4 °F 57% 29.96 in 10.0 mi SSE 17.3 mph - N/A   Clear
9:55 AM 63.5 °F 45.9 °F 53% 29.95 in 10.0 mi SSE 18.4 mph - N/A   Clear
10:55 AM 70.2 °F 50.4 °F 49% 29.93 in 10.0 mi SSE 17.3 mph - N/A   Clear
11:11 AM 71.6 °F 51.8 °F 50% 29.92 in 10.0 mi South 13.8 mph - N/A   Light Drizzle
11:20 AM 73.4 °F 51.8 °F 47% 29.91 in 10.0 mi South 17.3 mph - N/A   Clear
11:55 AM 75.4 °F 52.2 °F 44% 29.89 in 10.0 mi South 18.4 mph - 0.00 in   Clear
12:48 PM 78.8 °F 51.8 °F 39% 29.84 in 10.0 mi South 20.7 mph - N/A   Light Drizzle
12:55 PM 78.6 °F 51.4 °F 39% 29.84 in 10.0 mi South 18.4 mph - N/A   Clear
1:31 PM 80.6 °F 50.0 °F 34% 29.81 in 10.0 mi South 20.7 mph - N/A   Clear
1:55 PM 81.3 °F 50.9 °F 35% 29.81 in 10.0 mi South 21.9 mph - 0.00 in   Clear
1:58 PM 80.6 °F 51.8 °F 37% 29.81 in 10.0 mi South 20.7 mph 25.3 mph N/A   Clear
2:02 PM 82.4 °F 51.8 °F 35% 29.81 in 10.0 mi South 18.4 mph 25.3 mph N/A   Clear
2:55 PM 81.9 °F 51.8 °F 35% 29.80 in 10.0 mi South 18.4 mph 21.9 mph N/A   Clear
3:55 PM 82.9 °F 52.2 °F 34% 29.79 in 10.0 mi South 18.4 mph - N/A   Clear
4:55 PM 82.4 °F 50.2 °F 33% 29.78 in 10.0 mi SSE 12.7 mph - N/A   Clear
5:55 PM 77.7 °F 52.5 °F 41% 29.78 in 10.0 mi SSE 13.8 mph - N/A   Clear
6:55 PM 75.6 °F 52.7 °F 45% 29.80 in 10.0 mi SSE 11.5 mph - N/A   Clear
7:55 PM 75.2 °F 52.9 °F 46% 29.81 in 10.0 mi SSE 13.8 mph - N/A   Partly Cloudy
8:55 PM 69.6 °F 53.1 °F 56% 29.81 in 10.0 mi SSE 11.5 mph - N/A   Partly Cloudy
9:55 PM 68.4 °F 54.1 °F 60% 29.82 in 10.0 mi SSE 9.2 mph - N/A   Partly Cloudy
10:55 PM 68.7 °F 54.5 °F 60% 29.82 in 10.0 mi South 12.7 mph - N/A   Clear
11:55 PM 68.4 °F 54.1 °F 60% 29.82 in 10.0 mi SSE 10.4 mph - N/A   Scattered Clouds